Time,TemperatureF,DewpointF,PressureIn,WindDirection,WindDirectionDegrees,WindSpeedMPH,WindSpeedGustMPH,Humidity,HourlyPrecipIn,Conditions,Clouds,dailyrainin,SoftwareType,DateUTC
2013-02-15 00:00:00,24.3,14.5,29.91,South,191,0.0,0.0,66,0.00,OVC,,0.00,WeatherDisplay:10.37,2013-02-15 05:00:00,
2013-02-15 00:02:00,24.2,14.5,29.90,SSE,158,0.0,0.0,66,0.00,OVC,,0.00,WeatherDisplay:10.37,2013-02-15 05:02:00,
2013-02-15 00:07:00,24.1,14.3,29.90,South,180,0.0,0.0,66,0.00,OVC,,0.00,WeatherDisplay:10.37,2013-02-15 05:07:00,
2013-02-15 00:11:00,24.2,14.5,29.90,NNW,338,4.6,4.6,66,0.00,OVC,,0.00,WeatherDisplay:10.37,2013-02-15 05:11:00,
2013-02-15 00:16:00,24.3,14.6,29.90,SW,225,5.8,5.8,66,0.00,OVC,,0.00,WeatherDisplay:10.37,2013-02-15 05:16:00,
2013-02-15 00:21:00,24.6,14.8,29.90,SE,135,0.0,0.0,66,0.00,OVC,,0.00,WeatherDisplay:10.37,2013-02-15 05:21:00,
2013-02-15 00:26:00,24.5,14.7,29.90,West,270,0.0,0.0,66,0.00,OVC,,0.00,WeatherDisplay:10.37,2013-02-15 05:26:00,
2013-02-15 00:31:00,24.3,14.6,29.90,SW,225,3.5,3.5,66,0.00,OVC,,0.00,WeatherDisplay:10.37,2013-02-15 05:31:00,
2013-02-15 00:36:00,24.1,14.3,29.90,SSW,202,1.2,1.2,66,0.00,OVC,,0.00,WeatherDisplay:10.37,2013-02-15 05:36:00,
2013-02-15 00:41:00,23.9,14.2,29.90,West,270,3.5,3.5,66,0.00,OVC,,0.00,WeatherDisplay:10.37,2013-02-15 05:41:00,
2013-02-15 00:46:00,23.8,14.1,29.90,ESE,112,1.2,0.0,66,0.00,OVC,,0.00,WeatherDisplay:10.37,2013-02-15 05:46:00,
2013-02-15 00:51:00,23.5,13.8,29.90,South,180,3.5,3.5,66,0.00,OVC,,0.00,WeatherDisplay:10.37,2013-02-15 05:51:00,
2013-02-15 00:56:00,23.8,14.1,29.90,South,180,4.6,4.6,66,0.00,OVC,,0.00,WeatherDisplay:10.37,2013-02-15 05:56:00,
2013-02-15 01:01:00,23.8,14.1,29.90,SSE,158,1.5,1.5,66,0.00,OVC,,0.00,WeatherDisplay:10.37,2013-02-15 06:01:00,
2013-02-15 01:06:00,24.0,14.2,29.90,South,180,1.2,0.0,66,0.00,OVC,,0.00,WeatherDisplay:10.37,2013-02-15 06:06:00,
2013-02-15 01:11:00,24.1,14.4,29.90,NNW,338,2.3,2.3,66,0.00,OVC,,0.00,WeatherDisplay:10.37,2013-02-15 06:11:00,
2013-02-15 01:16:00,24.2,14.5,29.90,SW,225,0.0,0.0,66,0.00,OVC,,0.00,WeatherDisplay:10.37,2013-02-15 06:16:00,
2013-02-15 01:21:00,24.6,14.8,29.90,SW,225,0.0,0.0,66,0.00,OVC,,0.00,WeatherDisplay:10.37,2013-02-15 06:21:00,
2013-02-15 01:26:00,24.7,15.0,29.90,SW,225,0.0,0.0,66,0.00,OVC,,0.00,WeatherDisplay:10.37,2013-02-15 06:26:00,
2013-02-15 01:31:00,24.9,15.1,29.90,NW,315,3.1,3.1,66,0.00,OVC,,0.00,WeatherDisplay:10.37,2013-02-15 06:31:00,
2013-02-15 01:36:00,25.1,15.4,29.90,SSW,202,3.5,3.5,66,0.00,OVC,,0.00,WeatherDisplay:10.37,2013-02-15 06:36:00,
2013-02-15 01:41:00,25.3,15.5,29.90,SSW,202,0.0,0.0,66,0.00,OVC,,0.00,WeatherDisplay:10.37,2013-02-15 06:41:00,
2013-02-15 01:46:00,25.5,15.7,29.90,SW,225,4.6,4.6,66,0.00,OVC,,0.00,WeatherDisplay:10.37,2013-02-15 06:46:00,
2013-02-15 01:51:00,25.6,15.8,29.90,SW,225,4.6,4.6,66,0.00,OVC,,0.00,WeatherDisplay:10.37,2013-02-15 06:51:00,
2013-02-15 01:56:00,25.8,16.0,29.90,SSW,202,3.5,3.5,66,0.00,OVC,,0.00,WeatherDisplay:10.37,2013-02-15 06:56:00,
2013-02-15 02:01:00,25.9,16.1,29.89,South,180,4.6,4.6,66,0.00,OVC,,0.00,WeatherDisplay:10.37,2013-02-15 07:01:00,
2013-02-15 02:06:00,26.3,16.8,29.89,SSW,202,4.6,4.6,67,0.00,OVC,,0.00,WeatherDisplay:10.37,2013-02-15 07:06:00,
2013-02-15 02:11:00,26.2,17.0,29.89,SW,225,4.6,4.6,68,0.00,OVC,,0.00,WeatherDisplay:10.37,2013-02-15 07:11:00,
2013-02-15 02:16:00,26.3,17.1,29.89,South,180,1.2,1.2,68,0.00,OVC,,0.00,WeatherDisplay:10.37,2013-02-15 07:16:00,
2013-02-15 02:21:00,26.5,17.3,29.89,South,180,5.8,5.8,68,0.00,OVC,,0.00,WeatherDisplay:10.37,2013-02-15 07:21:00,
2013-02-15 02:26:00,26.6,17.5,29.89,SW,225,3.5,3.5,68,0.00,OVC,,0.00,WeatherDisplay:10.37,2013-02-15 07:26:00,
2013-02-15 02:31:00,26.8,17.6,29.89,SSW,202,3.5,3.5,68,0.00,OVC,,0.00,WeatherDisplay:10.37,2013-02-15 07:31:00,
2013-02-15 02:36:00,26.8,17.6,29.89,South,180,1.6,1.6,68,0.00,OVC,,0.00,WeatherDisplay:10.37,2013-02-15 07:36:00,
2013-02-15 02:41:00,26.6,17.8,29.89,NW,315,0.0,0.0,69,0.00,OVC,,0.00,WeatherDisplay:10.37,2013-02-15 07:41:00,
2013-02-15 02:46:00,26.4,17.9,29.89,ENE,68,0.0,0.0,70,0.00,OVC,,0.00,WeatherDisplay:10.37,2013-02-15 07:46:00,
2013-02-15 02:51:00,26.4,17.9,29.89,West,270,1.2,1.2,70,0.00,OVC,,0.00,WeatherDisplay:10.37,2013-02-15 07:51:00,
2013-02-15 02:56:00,26.3,17.8,29.89,NNW,338,1.5,1.5,70,0.00,OVC,,0.00,WeatherDisplay:10.37,2013-02-15 07:56:00,
2013-02-15 03:01:00,26.2,17.7,29.87,SSE,158,0.0,0.0,70,0.00,OVC,,0.00,WeatherDisplay:10.37,2013-02-15 08:01:00,
2013-02-15 03:06:00,26.3,17.9,29.87,SSW,202,0.0,0.0,70,0.00,OVC,,0.00,WeatherDisplay:10.37,2013-02-15 08:06:00,
2013-02-15 03:11:00,26.5,24.0,29.87,WNW,292,3.5,3.5,90,0.00,OVC,,0.00,WeatherDisplay:10.37,2013-02-15 08:11:00,
2013-02-15 03:16:00,26.3,23.8,29.87,West,270,0.0,0.0,90,0.00,OVC,,0.00,WeatherDisplay:10.37,2013-02-15 08:16:00,
2013-02-15 03:21:00,26.2,23.7,29.87,North,360,3.0,3.0,90,0.00,OVC,,0.00,WeatherDisplay:10.37,2013-02-15 08:21:00,
2013-02-15 03:26:00,26.2,23.6,29.87,NNW,338,3.5,3.5,90,0.00,OVC,,0.00,WeatherDisplay:10.37,2013-02-15 08:26:00,
2013-02-15 03:31:00,26.3,23.7,29.87,West,270,0.0,0.0,90,0.00,OVC,,0.00,WeatherDisplay:10.37,2013-02-15 08:31:00,
2013-02-15 03:36:00,26.2,23.6,29.87,ESE,112,0.0,0.0,90,0.00,OVC,,0.00,WeatherDisplay:10.37,2013-02-15 08:36:00,
2013-02-15 03:41:00,26.2,23.7,29.87,NW,315,1.2,1.2,90,0.00,OVC,,0.00,WeatherDisplay:10.37,2013-02-15 08:41:00,
2013-02-15 03:46:00,26.2,23.6,29.87,West,270,1.2,0.0,90,0.00,OVC,,0.00,WeatherDisplay:10.37,2013-02-15 08:46:00,
2013-02-15 03:51:00,26.3,23.8,29.87,South,180,0.0,0.0,90,0.00,OVC,,0.00,WeatherDisplay:10.37,2013-02-15 08:51:00,
2013-02-15 03:56:00,26.5,24.0,29.87,SSE,158,3.3,3.3,90,0.00,OVC,,0.00,WeatherDisplay:10.37,2013-02-15 08:56:00,
2013-02-15 04:01:00,26.8,24.2,29.87,NW,315,0.0,0.0,90,0.00,OVC,,0.00,WeatherDisplay:10.37,2013-02-15 09:01:00,
2013-02-15 04:06:00,26.8,24.2,29.87,WNW,292,0.0,0.0,90,0.00,OVC,,0.00,WeatherDisplay:10.37,2013-02-15 09:06:00,
2013-02-15 04:11:00,26.9,24.3,29.87,WNW,292,0.0,0.0,90,0.00,OVC,,0.00,WeatherDisplay:10.37,2013-02-15 09:11:00,
2013-02-15 04:16:00,26.7,24.2,29.87,SW,225,0.0,0.0,90,0.00,OVC,,0.00,WeatherDisplay:10.37,2013-02-15 09:16:00,
2013-02-15 04:21:00,26.8,24.2,29.87,SSW,202,0.0,0.0,90,0.00,OVC,,0.00,WeatherDisplay:10.37,2013-02-15 09:21:00,
2013-02-15 04:26:00,26.8,24.3,29.87,SSW,202,4.6,4.6,90,0.00,OVC,,0.00,WeatherDisplay:10.37,2013-02-15 09:26:00,
2013-02-15 04:31:00,26.6,24.1,29.87,SW,225,0.0,0.0,90,0.00,OVC,,0.00,WeatherDisplay:10.37,2013-02-15 09:31:00,
2013-02-15 04:36:00,26.0,23.5,29.87,NNW,338,0.0,0.0,90,0.00,OVC,,0.00,WeatherDisplay:10.37,2013-02-15 09:36:00,
2013-02-15 04:41:00,25.4,22.8,29.87,ENE,68,0.0,0.0,90,0.00,OVC,,0.00,WeatherDisplay:10.37,2013-02-15 09:41:00,
2013-02-15 04:46:00,24.9,22.4,29.87,SSE,158,0.0,0.0,90,0.00,OVC,,0.00,WeatherDisplay:10.37,2013-02-15 09:46:00,
2013-02-15 04:51:00,24.4,21.8,29.87,SSE,158,0.0,0.0,90,0.00,OVC,,0.00,WeatherDisplay:10.37,2013-02-15 09:51:00,
2013-02-15 04:56:00,24.2,21.7,29.87,ENE,68,0.0,0.0,90,0.00,OVC,,0.00,WeatherDisplay:10.37,2013-02-15 09:56:00,
2013-02-15 05:01:00,24.2,21.7,29.86,NNW,338,0.0,0.0,90,0.00,OVC,,0.00,WeatherDisplay:10.37,2013-02-15 10:01:00,
2013-02-15 05:06:00,23.8,21.3,29.86,North,360,0.0,0.0,90,0.00,OVC,,0.00,WeatherDisplay:10.37,2013-02-15 10:06:00,
2013-02-15 05:11:00,23.7,21.2,29.86,SSW,202,0.0,0.0,90,0.00,OVC,,0.00,WeatherDisplay:10.37,2013-02-15 10:11:00,
2013-02-15 05:16:00,23.9,21.4,29.86,SW,225,1.3,1.3,90,0.00,OVC,,0.00,WeatherDisplay:10.37,2013-02-15 10:16:00,
2013-02-15 05:21:00,24.2,21.7,29.86,South,180,0.0,0.0,90,0.00,OVC,,0.00,WeatherDisplay:10.37,2013-02-15 10:21:00,
2013-02-15 05:26:00,24.2,21.7,29.86,SW,225,3.5,3.5,90,0.00,OVC,,0.00,WeatherDisplay:10.37,2013-02-15 10:26:00,
2013-02-15 05:31:00,24.5,22.0,29.86,SW,225,3.5,3.5,90,0.00,OVC,,0.00,WeatherDisplay:10.37,2013-02-15 10:31:00,
2013-02-15 05:36:00,24.9,22.4,29.86,South,180,0.0,0.0,90,0.00,OVC,,0.00,WeatherDisplay:10.37,2013-02-15 10:36:00,
2013-02-15 05:41:00,25.3,22.7,29.86,SSE,158,4.6,4.6,90,0.00,OVC,,0.00,WeatherDisplay:10.37,2013-02-15 10:41:00,
2013-02-15 05:46:00,25.7,23.2,29.86,SW,225,4.6,4.6,90,0.00,OVC,,0.00,WeatherDisplay:10.37,2013-02-15 10:46:00,
2013-02-15 05:51:00,25.8,23.2,29.86,South,180,4.5,4.5,90,0.00,OVC,,0.00,WeatherDisplay:10.37,2013-02-15 10:51:00,
2013-02-15 05:56:00,26.0,23.5,29.86,SSW,202,0.0,0.0,90,0.00,OVC,,0.00,WeatherDisplay:10.37,2013-02-15 10:56:00,
2013-02-15 06:01:00,25.9,23.4,29.86,West,270,0.0,0.0,90,0.00,OVC,,0.00,WeatherDisplay:10.37,2013-02-15 11:01:00,
2013-02-15 06:06:00,25.7,23.2,29.86,SE,135,0.0,0.0,90,0.00,OVC,,0.00,WeatherDisplay:10.37,2013-02-15 11:06:00,
2013-02-15 06:11:00,25.7,23.2,29.86,SW,225,0.0,0.0,90,0.00,OVC,,0.00,WeatherDisplay:10.37,2013-02-15 11:11:00,
2013-02-15 06:16:00,25.6,23.1,29.86,NE,45,0.0,0.0,90,0.00,OVC,,0.00,WeatherDisplay:10.37,2013-02-15 11:16:00,
2013-02-15 06:21:00,25.5,23.0,29.86,WNW,292,0.0,0.0,90,0.00,OVC,,0.00,WeatherDisplay:10.37,2013-02-15 11:21:00,
2013-02-15 06:26:00,25.3,22.8,29.86,SW,225,0.0,0.0,90,0.00,OVC,,0.00,WeatherDisplay:10.37,2013-02-15 11:26:00,
2013-02-15 06:31:00,25.1,22.6,29.86,SSW,202,0.0,0.0,90,0.00,OVC,,0.00,WeatherDisplay:10.37,2013-02-15 11:31:00,
2013-02-15 06:36:00,25.2,22.7,29.86,NW,315,0.0,0.0,90,0.00,OVC,,0.00,WeatherDisplay:10.37,2013-02-15 11:36:00,
2013-02-15 06:41:00,25.1,22.6,29.86,ESE,112,1.2,0.0,90,0.00,OVC,,0.00,WeatherDisplay:10.37,2013-02-15 11:41:00,
2013-02-15 06:46:00,25.3,22.8,29.86,SSW,202,3.3,3.3,90,0.00,OVC,,0.00,WeatherDisplay:10.37,2013-02-15 11:46:00,
2013-02-15 06:51:00,25.5,23.0,29.86,NW,315,0.0,0.0,90,0.00,OVC,,0.00,WeatherDisplay:10.37,2013-02-15 11:51:00,
2013-02-15 06:56:00,25.6,23.1,29.86,SW,225,3.5,3.5,90,0.00,OVC,,0.00,WeatherDisplay:10.37,2013-02-15 11:56:00,
2013-02-15 07:01:00,25.8,23.2,29.85,SE,135,3.5,3.5,90,0.00,OVC,,0.00,WeatherDisplay:10.37,2013-02-15 12:01:00,
2013-02-15 07:06:00,25.8,23.2,29.85,WNW,292,0.0,0.0,90,0.00,OVC,,0.00,WeatherDisplay:10.37,2013-02-15 12:06:00,
2013-02-15 07:11:00,26.1,23.6,29.85,WNW,292,0.0,0.0,90,0.00,OVC,,0.00,WeatherDisplay:10.37,2013-02-15 12:11:00,
2013-02-15 07:16:00,26.2,23.7,29.85,WSW,248,0.0,0.0,90,0.00,OVC,,0.00,WeatherDisplay:10.37,2013-02-15 12:16:00,
2013-02-15 07:21:00,26.6,24.1,29.85,ESE,112,1.2,0.0,90,0.00,OVC,,0.00,WeatherDisplay:10.37,2013-02-15 12:21:00,
2013-02-15 07:26:00,27.1,24.5,29.85,SW,225,1.2,0.0,90,0.00,OVC,,0.00,WeatherDisplay:10.37,2013-02-15 12:26:00,
2013-02-15 07:31:00,27.7,25.2,29.85,North,360,0.0,0.0,90,0.00,OVC,,0.00,WeatherDisplay:10.37,2013-02-15 12:31:00,
2013-02-15 07:36:00,28.1,25.5,29.85,WSW,248,0.0,0.0,90,0.00,OVC,,0.00,WeatherDisplay:10.37,2013-02-15 12:36:00,
2013-02-15 07:41:00,28.2,25.7,29.85,SW,225,0.0,0.0,90,0.00,OVC,,0.00,WeatherDisplay:10.37,2013-02-15 12:41:00,
2013-02-15 07:46:00,28.8,26.2,29.85,SW,225,0.0,0.0,90,0.00,OVC,,0.00,WeatherDisplay:10.37,2013-02-15 12:46:00,
2013-02-15 07:51:00,29.1,26.6,29.85,NW,315,3.5,3.5,90,0.00,OVC,,0.00,WeatherDisplay:10.37,2013-02-15 12:51:00,
2013-02-15 07:56:00,30.0,27.4,29.85,South,180,0.0,0.0,90,0.00,OVC,,0.00,WeatherDisplay:10.37,2013-02-15 12:56:00,
2013-02-15 08:01:00,30.9,28.3,29.86,SSW,202,0.0,0.0,90,0.00,OVC,,0.00,WeatherDisplay:10.37,2013-02-15 13:01:00,
2013-02-15 08:06:00,31.4,28.8,29.86,SSW,202,0.0,0.0,90,0.00,OVC,,0.00,WeatherDisplay:10.37,2013-02-15 13:06:00,
2013-02-15 08:11:00,31.6,29.0,29.86,West,270,0.0,0.0,90,0.00,OVC,,0.00,WeatherDisplay:10.37,2013-02-15 13:11:00,
2013-02-15 08:16:00,32.4,26.0,29.86,South,180,1.2,0.0,77,0.00,OVC,,0.00,WeatherDisplay:10.37,2013-02-15 13:16:00,
2013-02-15 08:21:00,33.6,27.1,29.86,SE,135,1.6,1.6,77,0.00,OVC,,0.00,WeatherDisplay:10.37,2013-02-15 13:21:00,
2013-02-15 08:26:00,34.8,28.3,29.86,South,180,3.0,3.0,77,0.00,OVC,,0.00,WeatherDisplay:10.37,2013-02-15 13:26:00,
2013-02-15 08:31:00,36.6,30.0,29.86,SSW,202,8.1,8.1,77,0.00,OVC,,0.00,WeatherDisplay:10.37,2013-02-15 13:31:00,
2013-02-15 08:36:00,38.4,31.8,29.86,SE,135,6.9,6.9,77,0.00,OVC,,0.00,WeatherDisplay:10.37,2013-02-15 13:36:00,
2013-02-15 08:41:00,39.4,32.8,29.86,ESE,112,6.9,6.9,77,0.00,OVC,,0.01,WeatherDisplay:10.37,2013-02-15 13:41:00,
2013-02-15 08:46:00,40.4,33.8,29.86,SSE,158,8.0,8.0,77,0.01,RA,,0.01,WeatherDisplay:10.37,2013-02-15 13:46:00,
2013-02-15 08:51:00,40.1,33.5,29.86,SSW,202,9.2,9.2,77,0.01,RA,,0.01,WeatherDisplay:10.37,2013-02-15 13:51:00,
2013-02-15 08:56:00,40.3,33.6,29.86,East,90,10.4,10.4,77,0.01,OVC,,0.01,WeatherDisplay:10.37,2013-02-15 13:56:00,
2013-02-15 09:01:00,40.4,33.7,29.87,WNW,292,15.0,15.0,77,0.01,FEW,,0.01,WeatherDisplay:10.37,2013-02-15 14:01:00,
2013-02-15 09:06:00,41.4,34.7,29.87,SSE,158,10.4,10.4,77,0.01,FEW,,0.01,WeatherDisplay:10.37,2013-02-15 14:06:00,
2013-02-15 09:11:00,41.8,35.2,29.87,South,180,9.2,9.2,77,0.01,FEW,,0.01,WeatherDisplay:10.37,2013-02-15 14:11:00,
2013-02-15 09:16:00,42.0,31.1,29.87,South,180,13.9,13.9,65,0.01,FEW,,0.01,WeatherDisplay:10.37,2013-02-15 14:16:00,
2013-02-15 09:21:00,41.8,30.5,29.87,SSW,202,15.0,15.0,64,0.01,FEW,,0.01,WeatherDisplay:10.37,2013-02-15 14:21:00,
2013-02-15 09:26:00,42.2,30.9,29.87,SSE,158,8.1,8.1,64,0.01,FEW,,0.01,WeatherDisplay:10.37,2013-02-15 14:26:00,
2013-02-15 09:31:00,42.5,31.1,29.87,WSW,248,20.7,20.7,64,0.01,FEW,,0.01,WeatherDisplay:10.37,2013-02-15 14:31:00,
2013-02-15 09:36:00,42.6,31.3,29.87,West,270,4.6,4.6,64,0.01,FEW,,0.01,WeatherDisplay:10.37,2013-02-15 14:36:00,
2013-02-15 09:41:00,44.2,-26.9,29.87,West,270,20.7,20.7,4,0.01,FEW,,0.01,WeatherDisplay:10.37,2013-02-15 14:41:00,
2013-02-15 09:46:00,44.7,31.7,29.87,WNW,292,9.7,9.7,60,0.00,FEW,,0.01,WeatherDisplay:10.37,2013-02-15 14:46:00,
2013-02-15 09:51:00,43.6,33.0,29.87,WSW,248,21.9,21.9,66,0.00,FEW,,0.01,WeatherDisplay:10.37,2013-02-15 14:51:00,
2013-02-15 09:56:00,43.0,3.5,29.87,South,180,23.3,23.3,19,0.00,FEW,,0.01,WeatherDisplay:10.37,2013-02-15 14:56:00,
2013-02-15 10:01:00,43.3,30.3,29.87,South,180,5.9,5.9,60,0.00,FEW,,0.01,WeatherDisplay:10.37,2013-02-15 15:01:00,
2013-02-15 10:06:00,43.3,30.3,29.87,WSW,248,18.4,18.4,60,0.00,FEW,,0.01,WeatherDisplay:10.37,2013-02-15 15:06:00,
2013-02-15 10:11:00,43.4,30.4,29.87,West,270,17.3,17.3,60,0.00,FEW,,0.01,WeatherDisplay:10.37,2013-02-15 15:11:00,
2013-02-15 10:16:00,43.3,30.3,29.87,WNW,292,35.7,35.7,60,0.00,FEW,,0.01,WeatherDisplay:10.37,2013-02-15 15:16:00,
2013-02-15 10:21:00,43.1,30.1,29.87,SE,135,12.7,12.7,60,0.00,FEW,,0.01,WeatherDisplay:10.37,2013-02-15 15:21:00,
2013-02-15 10:26:00,43.1,30.2,29.87,SSW,202,24.2,24.2,60,0.00,FEW,,0.01,WeatherDisplay:10.37,2013-02-15 15:26:00,
2013-02-15 10:31:00,42.8,29.9,29.87,West,270,18.4,18.4,60,0.00,FEW,,0.01,WeatherDisplay:10.37,2013-02-15 15:31:00,
2013-02-15 10:36:00,42.9,29.9,29.87,WNW,292,17.3,17.3,60,0.00,FEW,,0.01,WeatherDisplay:10.37,2013-02-15 15:36:00,
2013-02-15 10:41:00,43.3,30.3,29.87,South,180,21.9,21.9,60,0.00,FEW,,0.01,WeatherDisplay:10.37,2013-02-15 15:41:00,
2013-02-15 10:46:00,43.8,30.8,29.87,West,270,27.6,27.6,60,0.00,FEW,,0.01,WeatherDisplay:10.37,2013-02-15 15:46:00,
2013-02-15 10:51:00,43.8,30.8,29.87,SW,225,17.3,17.3,60,0.00,FEW,,0.01,WeatherDisplay:10.37,2013-02-15 15:51:00,
2013-02-15 10:56:00,43.8,30.8,29.87,SE,135,21.9,21.9,60,0.00,FEW,,0.01,WeatherDisplay:10.37,2013-02-15 15:56:00,
2013-02-15 11:01:00,43.3,30.3,29.88,NW,315,18.4,18.4,60,0.00,BKN,,0.01,WeatherDisplay:10.37,2013-02-15 16:01:00,
2013-02-15 11:06:00,44.0,31.0,29.88,West,270,15.0,15.0,60,0.00,BKN,,0.01,WeatherDisplay:10.37,2013-02-15 16:06:00,
2013-02-15 11:11:00,43.6,29.8,29.88,West,270,24.2,24.2,58,0.00,BKN,,0.01,WeatherDisplay:10.37,2013-02-15 16:11:00,
2013-02-15 11:16:00,43.5,29.7,29.88,South,180,15.5,15.5,58,0.00,BKN,,0.01,WeatherDisplay:10.37,2013-02-15 16:16:00,
2013-02-15 11:21:00,44.2,30.4,29.88,West,270,10.4,10.4,58,0.00,BKN,,0.01,WeatherDisplay:10.37,2013-02-15 16:21:00,
2013-02-15 11:26:00,43.8,29.5,29.88,WNW,292,15.0,15.0,57,0.00,BKN,,0.01,WeatherDisplay:10.37,2013-02-15 16:26:00,
2013-02-15 11:31:00,44.5,29.8,29.88,South,180,16.8,16.8,56,0.00,BKN,,0.01,WeatherDisplay:10.37,2013-02-15 16:31:00,
2013-02-15 11:36:00,44.5,29.8,29.88,West,270,25.3,25.3,56,0.00,BKN,,0.01,WeatherDisplay:10.37,2013-02-15 16:36:00,
2013-02-15 11:41:00,44.6,29.9,29.88,NW,315,21.9,21.9,56,0.00,BKN,,0.01,WeatherDisplay:10.37,2013-02-15 16:41:00,
2013-02-15 11:46:00,44.9,30.2,29.88,NNW,338,13.3,13.3,56,0.00,BKN,,0.01,WeatherDisplay:10.37,2013-02-15 16:46:00,
2013-02-15 11:51:00,45.4,30.6,29.88,West,270,11.7,11.7,56,0.00,BKN,,0.01,WeatherDisplay:10.37,2013-02-15 16:51:00,
2013-02-15 11:56:00,46.5,31.6,29.88,SSW,202,24.2,24.2,56,0.00,BKN,,0.01,WeatherDisplay:10.37,2013-02-15 16:56:00,
2013-02-15 12:01:00,46.9,32.0,29.87,SW,225,13.2,13.2,56,0.00,SCT,,0.01,WeatherDisplay:10.37,2013-02-15 17:01:00,
2013-02-15 12:06:00,46.7,31.0,29.87,West,270,8.9,8.9,54,0.00,SCT,,0.01,WeatherDisplay:10.37,2013-02-15 17:06:00,
2013-02-15 12:11:00,45.6,29.9,29.87,North,360,12.7,12.7,54,0.00,SCT,,0.01,WeatherDisplay:10.37,2013-02-15 17:11:00,
2013-02-15 12:16:00,44.3,28.7,29.87,South,180,24.2,24.2,54,0.00,SCT,,0.01,WeatherDisplay:10.37,2013-02-15 17:16:00,
2013-02-15 12:21:00,44.6,29.0,29.87,ESE,112,10.4,10.4,54,0.00,SCT,,0.01,WeatherDisplay:10.37,2013-02-15 17:21:00,
2013-02-15 12:26:00,44.7,29.0,29.87,NNW,338,13.8,13.8,54,0.00,SCT,,0.01,WeatherDisplay:10.37,2013-02-15 17:26:00,
2013-02-15 12:31:00,44.8,29.1,29.87,SW,225,13.8,13.8,54,0.00,SCT,,0.01,WeatherDisplay:10.37,2013-02-15 17:31:00,
2013-02-15 12:36:00,44.5,28.5,29.87,NE,45,14.9,14.9,53,0.00,SCT,,0.01,WeatherDisplay:10.37,2013-02-15 17:36:00,
2013-02-15 12:41:00,43.1,26.6,29.87,ENE,68,19.6,19.6,52,0.00,SCT,,0.01,WeatherDisplay:10.37,2013-02-15 17:41:00,
2013-02-15 12:46:00,42.9,26.5,29.87,NW,315,15.7,15.7,52,0.00,SCT,,0.01,WeatherDisplay:10.37,2013-02-15 17:46:00,
2013-02-15 12:51:00,43.4,26.9,29.87,ENE,68,17.3,17.3,52,0.00,SCT,,0.01,WeatherDisplay:10.37,2013-02-15 17:51:00,
2013-02-15 12:56:00,44.7,28.1,29.87,SSE,158,15.0,15.0,52,0.00,SCT,,0.01,WeatherDisplay:10.37,2013-02-15 17:56:00,
2013-02-15 13:01:00,45.2,28.6,29.87,West,270,11.5,11.5,52,0.00,SCT,,0.01,WeatherDisplay:10.37,2013-02-15 18:01:00,
2013-02-15 13:06:00,45.1,28.5,29.87,North,360,19.6,19.6,52,0.00,SCT,,0.01,WeatherDisplay:10.37,2013-02-15 18:06:00,
2013-02-15 13:11:00,44.0,27.5,29.87,NNW,338,20.7,20.7,52,0.00,SCT,,0.01,WeatherDisplay:10.37,2013-02-15 18:11:00,
2013-02-15 13:16:00,43.5,27.1,29.87,NE,45,12.7,12.7,52,0.00,SCT,,0.01,WeatherDisplay:10.37,2013-02-15 18:16:00,
2013-02-15 13:21:00,42.8,26.4,29.87,SW,225,23.0,23.0,52,0.00,SCT,,0.01,WeatherDisplay:10.37,2013-02-15 18:21:00,
2013-02-15 13:26:00,42.9,26.5,29.87,West,270,20.7,20.7,52,0.00,SCT,,0.01,WeatherDisplay:10.37,2013-02-15 18:26:00,
2013-02-15 13:31:00,43.4,26.9,29.87,SW,225,18.4,18.4,52,0.00,SCT,,0.01,WeatherDisplay:10.37,2013-02-15 18:31:00,
2013-02-15 13:36:00,43.6,27.1,29.87,NW,315,11.5,11.5,52,0.00,SCT,,0.01,WeatherDisplay:10.37,2013-02-15 18:36:00,
2013-02-15 13:41:00,43.5,27.1,29.87,SSE,158,18.0,18.0,52,0.00,SCT,,0.01,WeatherDisplay:10.37,2013-02-15 18:41:00,
2013-02-15 13:46:00,43.1,26.6,29.87,West,270,18.4,18.4,52,0.00,SCT,,0.01,WeatherDisplay:10.37,2013-02-15 18:46:00,
2013-02-15 13:51:00,42.0,25.6,29.87,WNW,292,16.1,16.1,52,0.00,SCT,,0.01,WeatherDisplay:10.37,2013-02-15 18:51:00,
2013-02-15 13:56:00,41.8,25.4,29.87,West,270,8.1,8.1,52,0.00,SCT,,0.01,WeatherDisplay:10.37,2013-02-15 18:56:00,
2013-02-15 14:01:00,43.1,26.7,29.86,SW,225,15.0,15.0,52,0.00,SCT,,0.01,WeatherDisplay:10.37,2013-02-15 19:01:00,
2013-02-15 14:06:00,43.4,26.9,29.86,SW,225,13.8,13.8,52,0.00,SCT,,0.01,WeatherDisplay:10.37,2013-02-15 19:06:00,
2013-02-15 14:11:00,43.8,27.3,29.86,West,270,13.8,13.8,52,0.00,SCT,,0.01,WeatherDisplay:10.37,2013-02-15 19:11:00,
2013-02-15 14:16:00,44.0,27.0,29.86,ESE,112,12.7,12.7,51,0.00,SCT,,0.01,WeatherDisplay:10.37,2013-02-15 19:16:00,
2013-02-15 14:21:00,43.9,26.9,29.86,NW,315,17.3,17.3,51,0.00,SCT,,0.01,WeatherDisplay:10.37,2013-02-15 19:21:00,
2013-02-15 14:26:00,42.6,25.3,29.86,SE,135,16.1,16.1,50,0.00,SCT,,0.01,WeatherDisplay:10.37,2013-02-15 19:26:00,
2013-02-15 14:31:00,41.2,23.9,29.86,East,90,25.3,25.3,50,0.00,SCT,,0.01,WeatherDisplay:10.37,2013-02-15 19:31:00,
2013-02-15 14:36:00,41.1,23.9,29.86,South,180,30.2,30.2,50,0.00,SCT,,0.01,WeatherDisplay:10.37,2013-02-15 19:36:00,
2013-02-15 14:41:00,41.9,24.6,29.86,SSW,202,20.7,20.7,50,0.00,SCT,,0.01,WeatherDisplay:10.37,2013-02-15 19:41:00,
2013-02-15 14:46:00,42.4,25.0,29.86,East,90,15.0,15.0,50,0.00,SCT,,0.01,WeatherDisplay:10.37,2013-02-15 19:46:00,
2013-02-15 14:51:00,42.4,25.1,29.86,West,270,8.1,8.1,50,0.00,SCT,,0.01,WeatherDisplay:10.37,2013-02-15 19:51:00,
2013-02-15 14:56:00,42.2,24.9,29.86,West,270,19.6,19.6,50,0.00,SCT,,0.01,WeatherDisplay:10.37,2013-02-15 19:56:00,
2013-02-15 15:01:00,42.1,24.8,29.88,West,270,17.3,17.3,50,0.00,FEW,,0.01,WeatherDisplay:10.37,2013-02-15 20:01:00,
2013-02-15 15:06:00,42.0,24.7,29.88,West,270,13.8,13.8,50,0.00,FEW,,0.01,WeatherDisplay:10.37,2013-02-15 20:06:00,
2013-02-15 15:11:00,41.7,22.9,29.88,West,270,20.7,20.7,47,0.00,FEW,,0.01,WeatherDisplay:10.37,2013-02-15 20:11:00,
2013-02-15 15:16:00,42.1,23.3,29.88,West,270,5.8,5.8,47,0.00,FEW,,0.01,WeatherDisplay:10.37,2013-02-15 20:16:00,
2013-02-15 15:21:00,42.2,22.9,29.88,NW,315,10.4,10.4,46,0.00,FEW,,0.01,WeatherDisplay:10.37,2013-02-15 20:21:00,
2013-02-15 15:26:00,40.7,21.5,29.88,NW,315,17.3,17.3,46,0.00,FEW,,0.01,WeatherDisplay:10.37,2013-02-15 20:26:00,
2013-02-15 15:31:00,40.5,21.3,29.88,NW,315,12.7,12.7,46,0.00,FEW,,0.01,WeatherDisplay:10.37,2013-02-15 20:31:00,
2013-02-15 15:36:00,40.4,21.3,29.88,WSW,248,12.3,12.3,46,0.00,FEW,,0.01,WeatherDisplay:10.37,2013-02-15 20:36:00,
2013-02-15 15:41:00,40.1,21.0,29.88,SSW,202,12.9,12.9,46,0.00,FEW,,0.01,WeatherDisplay:10.37,2013-02-15 20:41:00,
2013-02-15 15:46:00,39.4,20.3,29.88,NNE,22,24.2,24.2,46,0.00,FEW,,0.01,WeatherDisplay:10.37,2013-02-15 20:46:00,
2013-02-15 15:51:00,39.1,20.0,29.88,SW,225,12.7,12.7,46,0.00,FEW,,0.01,WeatherDisplay:10.37,2013-02-15 20:51:00,
2013-02-15 15:56:00,38.8,19.8,29.88,North,360,20.7,20.7,46,0.00,FEW,,0.01,WeatherDisplay:10.37,2013-02-15 20:56:00,
2013-02-15 16:01:00,38.5,19.5,29.89,WNW,292,16.1,16.1,46,0.00,FEW,,0.01,WeatherDisplay:10.37,2013-02-15 21:01:00,
2013-02-15 16:06:00,38.1,19.1,29.89,NE,45,11.5,11.5,46,0.00,FEW,,0.01,WeatherDisplay:10.37,2013-02-15 21:06:00,
2013-02-15 16:11:00,38.5,19.5,29.89,South,180,12.7,12.7,46,0.00,FEW,,0.01,WeatherDisplay:10.37,2013-02-15 21:11:00,
2013-02-15 16:16:00,38.4,19.4,29.89,NNW,338,10.4,10.4,46,0.00,FEW,,0.01,WeatherDisplay:10.37,2013-02-15 21:16:00,
2013-02-15 16:21:00,38.5,19.5,29.89,WNW,292,10.4,10.4,46,0.00,FEW,,0.01,WeatherDisplay:10.37,2013-02-15 21:21:00,
2013-02-15 16:26:00,38.2,19.3,29.89,North,360,6.9,6.9,46,0.00,FEW,,0.01,WeatherDisplay:10.37,2013-02-15 21:26:00,
2013-02-15 16:31:00,38.4,19.4,29.89,NNE,22,8.1,8.1,46,0.00,FEW,,0.01,WeatherDisplay:10.37,2013-02-15 21:31:00,
2013-02-15 16:36:00,38.1,19.1,29.89,NW,315,9.2,9.2,46,0.00,FEW,,0.01,WeatherDisplay:10.37,2013-02-15 21:36:00,
2013-02-15 16:41:00,38.2,19.3,29.89,NW,315,9.2,9.2,46,0.00,FEW,,0.01,WeatherDisplay:10.37,2013-02-15 21:41:00,
2013-02-15 16:46:00,37.6,18.7,29.89,West,270,10.4,10.4,46,0.00,FEW,,0.01,WeatherDisplay:10.37,2013-02-15 21:46:00,
2013-02-15 16:51:00,37.3,18.4,29.89,NW,315,8.1,8.1,46,0.00,FEW,,0.01,WeatherDisplay:10.37,2013-02-15 21:51:00,
2013-02-15 16:56:00,37.0,18.1,29.89,West,270,9.2,9.2,46,0.00,FEW,,0.01,WeatherDisplay:10.37,2013-02-15 21:56:00,
2013-02-15 17:01:00,36.4,17.6,29.91,NNE,22,4.7,4.7,46,0.00,CLR,,0.01,WeatherDisplay:10.37,2013-02-15 22:01:00,
2013-02-15 17:06:00,35.9,17.1,29.91,East,90,3.0,3.0,46,0.00,CLR,,0.01,WeatherDisplay:10.37,2013-02-15 22:06:00,
2013-02-15 17:11:00,35.5,16.7,29.91,East,90,6.9,6.9,46,0.00,CLR,,0.01,WeatherDisplay:10.37,2013-02-15 22:11:00,
2013-02-15 17:16:00,35.4,16.6,29.91,NNE,22,4.6,4.6,46,0.00,CLR,,0.01,WeatherDisplay:10.37,2013-02-15 22:16:00,
2013-02-15 17:21:00,35.3,16.6,29.91,ESE,112,3.5,3.5,46,0.00,CLR,,0.01,WeatherDisplay:10.37,2013-02-15 22:21:00,
2013-02-15 17:26:00,34.9,15.7,29.91,West,270,0.0,0.0,45,0.00,CLR,,0.01,WeatherDisplay:10.37,2013-02-15 22:26:00,
2013-02-15 17:31:00,34.7,15.5,29.91,East,90,4.6,4.6,45,0.00,CLR,,0.01,WeatherDisplay:10.37,2013-02-15 22:31:00,
2013-02-15 17:36:00,34.6,15.4,29.91,WNW,292,6.9,6.9,45,0.00,CLR,,0.01,WeatherDisplay:10.37,2013-02-15 22:36:00,
2013-02-15 17:41:00,34.2,15.0,29.91,NNE,22,1.5,1.5,45,0.00,CLR,,0.01,WeatherDisplay:10.37,2013-02-15 22:41:00,
2013-02-15 17:46:00,34.0,14.8,29.91,WSW,248,5.8,5.8,45,0.00,CLR,,0.01,WeatherDisplay:10.37,2013-02-15 22:46:00,
2013-02-15 17:51:00,33.8,14.7,29.91,NW,315,7.8,7.8,45,0.00,CLR,,0.01,WeatherDisplay:10.37,2013-02-15 22:51:00,
2013-02-15 17:56:00,33.4,14.3,29.91,NW,315,5.8,5.8,45,0.00,CLR,,0.01,WeatherDisplay:10.37,2013-02-15 22:56:00,
2013-02-15 18:01:00,33.4,14.3,29.92,SE,135,3.5,3.5,45,0.00,SCT,,0.01,WeatherDisplay:10.37,2013-02-15 23:01:00,
2013-02-15 18:06:00,33.7,14.6,29.92,WSW,248,4.6,4.6,45,0.00,SCT,,0.01,WeatherDisplay:10.37,2013-02-15 23:06:00,
2013-02-15 18:11:00,34.0,14.8,29.92,SE,135,4.6,4.6,45,0.00,SCT,,0.01,WeatherDisplay:10.37,2013-02-15 23:11:00,
2013-02-15 18:16:00,34.0,14.8,29.92,SSE,158,3.5,3.5,45,0.00,SCT,,0.01,WeatherDisplay:10.37,2013-02-15 23:16:00,
2013-02-15 18:21:00,34.0,14.8,29.92,SE,135,8.1,8.1,45,0.00,SCT,,0.01,WeatherDisplay:10.37,2013-02-15 23:21:00,
2013-02-15 18:26:00,34.0,14.8,29.92,SE,135,4.6,4.6,45,0.00,SCT,,0.01,WeatherDisplay:10.37,2013-02-15 23:26:00,
2013-02-15 18:31:00,34.1,15.0,29.92,SSW,202,17.3,17.3,45,0.00,SCT,,0.01,WeatherDisplay:10.37,2013-02-15 23:31:00,
2013-02-15 18:36:00,34.1,15.0,29.92,WNW,292,4.6,4.6,45,0.00,SCT,,0.01,WeatherDisplay:10.37,2013-02-15 23:36:00,
2013-02-15 18:41:00,34.1,15.0,29.92,SSE,158,5.8,5.8,45,0.00,SCT,,0.01,WeatherDisplay:10.37,2013-02-15 23:41:00,
2013-02-15 18:46:00,33.6,14.5,29.92,NW,315,6.9,6.9,45,0.00,SCT,,0.01,WeatherDisplay:10.37,2013-02-15 23:46:00,
2013-02-15 18:51:00,33.1,14.1,29.92,West,270,4.6,4.6,45,0.00,SCT,,0.01,WeatherDisplay:10.37,2013-02-15 23:51:00,
2013-02-15 18:56:00,32.8,13.7,29.92,NW,315,14.7,14.7,45,0.00,SCT,,0.01,WeatherDisplay:10.37,2013-02-15 23:56:00,
2013-02-15 19:01:00,32.9,13.9,29.93,NW,315,15.0,15.0,45,0.00,FEW,,0.01,WeatherDisplay:10.37,2013-02-16 00:01:00,
2013-02-15 19:06:00,32.7,13.7,29.93,NNW,338,17.3,17.3,45,0.00,FEW,,0.01,WeatherDisplay:10.37,2013-02-16 00:06:00,
2013-02-15 19:11:00,32.4,13.4,29.93,NNW,338,6.9,6.9,45,0.00,FEW,,0.01,WeatherDisplay:10.37,2013-02-16 00:11:00,
2013-02-15 19:16:00,32.6,13.5,29.93,NW,315,5.8,5.8,45,0.00,FEW,,0.01,WeatherDisplay:10.37,2013-02-16 00:16:00,
2013-02-15 19:21:00,32.1,13.1,29.93,NNW,338,8.1,8.1,45,0.00,FEW,,0.01,WeatherDisplay:10.37,2013-02-16 00:21:00,
2013-02-15 19:26:00,32.1,13.1,29.93,NNW,338,4.6,4.6,45,0.00,FEW,,0.01,WeatherDisplay:10.37,2013-02-16 00:26:00,
2013-02-15 19:31:00,31.8,12.9,29.93,WSW,248,5.8,5.8,45,0.00,FEW,,0.01,WeatherDisplay:10.37,2013-02-16 00:31:00,
2013-02-15 19:36:00,32.1,13.1,29.93,SSW,202,3.5,3.5,45,0.00,FEW,,0.01,WeatherDisplay:10.37,2013-02-16 00:36:00,
2013-02-15 19:41:00,32.2,13.2,29.93,SSW,202,3.5,3.5,45,0.00,FEW,,0.01,WeatherDisplay:10.37,2013-02-16 00:41:00,
2013-02-15 19:46:00,32.0,13.0,29.93,West,270,1.2,1.2,45,0.00,FEW,,0.01,WeatherDisplay:10.37,2013-02-16 00:46:00,
2013-02-15 19:52:00,31.4,12.5,29.93,South,180,3.5,3.5,45,0.00,FEW,,0.01,WeatherDisplay:10.37,2013-02-16 00:52:00,
2013-02-15 19:57:00,31.2,12.3,29.93,SSW,202,3.5,3.5,45,0.00,FEW,,0.01,WeatherDisplay:10.37,2013-02-16 00:57:00,
2013-02-15 20:02:00,31.2,12.3,29.93,SSW,202,4.6,4.6,45,0.00,OVC,,0.01,WeatherDisplay:10.37,2013-02-16 01:02:00,
2013-02-15 20:07:00,31.0,12.2,29.93,SW,225,3.5,3.5,45,0.00,OVC,,0.01,WeatherDisplay:10.37,2013-02-16 01:07:00,
2013-02-15 20:12:00,30.7,11.8,29.93,South,180,3.5,3.5,45,0.00,OVC,,0.01,WeatherDisplay:10.37,2013-02-16 01:12:00,
2013-02-15 20:17:00,30.3,11.5,29.93,SW,225,3.5,3.5,45,0.00,OVC,,0.01,WeatherDisplay:10.37,2013-02-16 01:17:00,
2013-02-15 20:22:00,30.0,11.2,29.93,SW,225,5.9,5.9,45,0.00,OVC,,0.01,WeatherDisplay:10.37,2013-02-16 01:22:00,
2013-02-15 20:27:00,29.6,10.9,29.93,SW,225,5.0,5.0,45,0.00,OVC,,0.01,WeatherDisplay:10.37,2013-02-16 01:27:00,
2013-02-15 20:32:00,29.4,10.7,29.93,SSW,202,3.5,3.5,45,0.00,OVC,,0.01,WeatherDisplay:10.37,2013-02-16 01:32:00,
2013-02-15 20:37:00,29.0,10.3,29.93,SSW,202,3.5,3.5,45,0.00,OVC,,0.01,WeatherDisplay:10.37,2013-02-16 01:37:00,
2013-02-15 20:42:00,28.6,9.9,29.93,South,180,3.5,3.5,45,0.00,OVC,,0.01,WeatherDisplay:10.37,2013-02-16 01:42:00,
2013-02-15 20:47:00,28.6,9.9,29.93,SSW,202,5.8,5.8,45,0.00,OVC,,0.01,WeatherDisplay:10.37,2013-02-16 01:47:00,
2013-02-15 20:52:00,28.2,9.5,29.93,SW,225,4.7,4.7,45,0.00,OVC,,0.01,WeatherDisplay:10.37,2013-02-16 01:52:00,
2013-02-15 20:57:00,28.1,9.4,29.93,SW,225,5.8,5.8,45,0.00,OVC,,0.01,WeatherDisplay:10.37,2013-02-16 01:57:00,
2013-02-15 21:02:00,28.0,9.3,29.93,SSW,202,4.6,4.6,45,0.00,OVC,,0.01,WeatherDisplay:10.37,2013-02-16 02:02:00,
2013-02-15 21:07:00,27.9,9.8,29.93,SW,225,5.8,5.8,46,0.00,OVC,,0.01,WeatherDisplay:10.37,2013-02-16 02:07:00,
2013-02-15 21:12:00,27.8,9.7,29.93,SSW,202,4.7,4.7,46,0.00,OVC,,0.01,WeatherDisplay:10.37,2013-02-16 02:12:00,
2013-02-15 21:17:00,27.8,9.7,29.93,SSW,202,5.8,5.8,46,0.00,OVC,,0.01,WeatherDisplay:10.37,2013-02-16 02:17:00,
2013-02-15 21:22:00,27.7,9.6,29.93,SSE,158,4.6,4.6,46,0.00,OVC,,0.01,WeatherDisplay:10.37,2013-02-16 02:22:00,
2013-02-15 21:27:00,27.4,9.3,29.93,SSE,158,4.6,4.6,46,0.00,OVC,,0.01,WeatherDisplay:10.37,2013-02-16 02:27:00,
2013-02-15 21:32:00,26.9,8.9,29.93,South,180,4.6,4.6,46,0.00,OVC,,0.01,WeatherDisplay:10.37,2013-02-16 02:32:00,
2013-02-15 21:37:00,26.9,8.8,29.93,SSW,202,4.4,4.4,46,0.00,OVC,,0.01,WeatherDisplay:10.37,2013-02-16 02:37:00,
2013-02-15 21:42:00,26.8,8.7,29.93,SSW,202,5.8,5.8,46,0.00,OVC,,0.01,WeatherDisplay:10.37,2013-02-16 02:42:00,
2013-02-15 21:47:00,26.7,8.7,29.93,South,180,4.6,4.6,46,0.00,OVC,,0.01,WeatherDisplay:10.37,2013-02-16 02:47:00,
2013-02-15 21:53:00,26.5,8.5,29.93,South,180,3.5,3.5,46,0.00,OVC,,0.01,WeatherDisplay:10.37,2013-02-16 02:53:00,
2013-02-15 21:58:00,26.4,8.4,29.93,South,180,3.5,3.5,46,0.00,OVC,,0.01,WeatherDisplay:10.37,2013-02-16 02:58:00,
2013-02-15 22:03:00,26.3,8.8,29.92,SW,225,4.6,4.6,47,0.00,OVC,,0.01,WeatherDisplay:10.37,2013-02-16 03:03:00,
2013-02-15 22:08:00,26.1,9.1,29.92,SW,225,5.8,5.8,48,0.00,OVC,,0.01,WeatherDisplay:10.37,2013-02-16 03:08:00,
2013-02-15 22:13:00,26.2,9.2,29.92,SSW,202,5.9,5.9,48,0.00,OVC,,0.01,WeatherDisplay:10.37,2013-02-16 03:13:00,
2013-02-15 22:18:00,26.4,9.4,29.92,SSW,202,6.9,6.9,48,0.00,OVC,,0.01,WeatherDisplay:10.37,2013-02-16 03:18:00,
2013-02-15 22:23:00,27.0,9.9,29.92,SSW,202,6.9,6.9,48,0.00,OVC,,0.01,WeatherDisplay:10.37,2013-02-16 03:23:00,
2013-02-15 22:28:00,27.6,10.4,29.92,SW,225,5.8,5.8,48,0.00,OVC,,0.01,WeatherDisplay:10.37,2013-02-16 03:28:00,
2013-02-15 22:33:00,27.8,10.7,29.92,NNW,338,3.5,3.5,48,0.00,OVC,,0.01,WeatherDisplay:10.37,2013-02-16 03:33:00,
2013-02-15 22:38:00,27.7,10.5,29.92,West,270,0.0,0.0,48,0.00,OVC,,0.01,WeatherDisplay:10.37,2013-02-16 03:38:00,
2013-02-15 22:43:00,27.7,10.5,29.92,South,180,4.6,4.6,48,0.00,OVC,,0.01,WeatherDisplay:10.37,2013-02-16 03:43:00,
2013-02-15 22:48:00,27.6,10.9,29.92,West,270,3.5,3.5,49,0.00,OVC,,0.01,WeatherDisplay:10.37,2013-02-16 03:48:00,
2013-02-15 22:53:00,27.6,10.9,29.92,SSW,202,4.4,4.4,49,0.00,OVC,,0.01,WeatherDisplay:10.37,2013-02-16 03:53:00,
2013-02-15 22:58:00,27.4,10.7,29.92,South,180,1.2,1.2,49,0.00,OVC,,0.01,WeatherDisplay:10.37,2013-02-16 03:58:00,
2013-02-15 23:03:00,27.4,10.7,29.93,SW,225,3.5,3.5,49,0.00,OVC,,0.01,WeatherDisplay:10.37,2013-02-16 04:03:00,
2013-02-15 23:08:00,27.5,10.8,29.93,WSW,248,3.5,3.5,49,0.00,OVC,,0.01,WeatherDisplay:10.37,2013-02-16 04:08:00,
2013-02-15 23:13:00,27.5,10.8,29.93,SW,225,1.5,1.5,49,0.00,OVC,,0.01,WeatherDisplay:10.37,2013-02-16 04:13:00,
2013-02-15 23:18:00,27.4,10.7,29.93,SW,225,0.0,0.0,49,0.00,OVC,,0.01,WeatherDisplay:10.37,2013-02-16 04:18:00,
2013-02-15 23:23:00,27.3,10.7,29.93,SW,225,0.0,0.0,49,0.00,OVC,,0.01,WeatherDisplay:10.37,2013-02-16 04:23:00,
2013-02-15 23:28:00,27.1,13.9,29.93,South,180,0.0,0.0,57,0.00,OVC,,0.01,WeatherDisplay:10.37,2013-02-16 04:28:00,
2013-02-15 23:33:00,27.3,14.0,29.93,North,360,6.9,6.9,57,0.00,OVC,,0.01,WeatherDisplay:10.37,2013-02-16 04:33:00,
2013-02-15 23:38:00,27.4,14.2,29.93,NNW,338,11.5,11.5,57,0.00,OVC,,0.01,WeatherDisplay:10.37,2013-02-16 04:38:00,
2013-02-15 23:43:00,27.8,14.6,29.93,NNE,22,13.8,13.8,57,0.00,OVC,,0.01,WeatherDisplay:10.37,2013-02-16 04:43:00,
2013-02-15 23:48:00,28.4,15.1,29.93,NW,315,9.2,9.2,57,0.00,OVC,,0.01,WeatherDisplay:10.37,2013-02-16 04:48:00,
2013-02-15 23:53:00,28.6,15.2,29.93,NW,315,10.4,10.4,57,0.00,OVC,,0.01,WeatherDisplay:10.37,2013-02-16 04:53:00,
2013-02-15 23:58:00,29.1,15.7,29.93,WNW,292,11.5,11.5,57,0.00,OVC,,0.01,WeatherDisplay:10.37,2013-02-16 04:58:00,